Powrót do katalogu

OPS 4682 DEB

AktywnyPO
NORAD 14717·DEBRIS·🇺🇸 United States

Wystrzelony Apr 3, 1965 z Vandenberg Space Force Base

Loading…

Następne Przeloty (najbliższe 24 godziny)

TLE

ŚwieżeSource: Space-Track

Epoka: Sep 14, 2026, 13:06 UTC

1 14717U 65027Q   26257.54612449  .00000101  00000-0  32127-3 0  9997
2 14717  90.2396 352.6394 0033590 205.9615 215.8499 12.97535511127671

Śledź OPS 4682 DEB w czasie rzeczywistym z AllMySat

Download on the App Store